O3B FM9 (40351 NORAD) Tracking and Keplerian Element Data

This shows tracking and keplerian element data for the satellite.

Feedback or suggestion? Click here.




ElementValue
Catalog40351
NameO3B FM9
Epoch Orbit6542
Epoch Day198.80497714
Epoch Year2018
RAAN8.9012
Inclination0.034
Eccentricity0.0002615
Argument of Perigee106.1065
Mean Anonmoly245.0158
Mean Motion5.00114878
Decay Rate-2.7E-07
L11 40351U 14083D 18198.80497714 -.00000027 00000-0 00000-0 0 9996
L22 40351 0.0340 8.9012 0002615 106.1065 245.0158 5.00114878 65421

Live tracking and technical data element details for O3B FM9 (NORAD 40351). O3B FM9 can be tracked NOW for your location showing map with azimuth and elevation plus other details from your city location.

Track the satellite on the map from your city or location and see movement details for azimuth, elevation, latitude, longitude, range, height, and movement on the map or in text.







IsCatalogInMostPopularTable: catalog: 40351, numindb: 64
Update: records affected: 1



GetName: 40351 O3B FM9

Hit Count: updated at: Thu, 19 Jul 2018 03:55:10 GMT